ECDAN LEMR-LEAS

Flight info

Callsign ECDAN
Flight time 0h 24m
Altitude 4000
Route LEMR LEAS
Aircraft CH70/L-SBDFGRY/C

Departure

Time 2026-05-08 17:36
Airport La Morgal Airfield (LEMR)

Arrival

Time 2026-05-08 18:01
Airport Asturias Airport (LEAS)
Time Latitude Longitude Altitude Speed Heading
2026-05-08 17:28 43.43642 -5.83160 525 ft 0 kts 94°
2026-05-08 17:28 43.43642 -5.83148 525 ft 5 kts 90°
2026-05-08 17:28 43.43642 -5.83128 525 ft 0 kts 87°
2026-05-08 17:32 43.43642 -5.83125 524 ft 0 kts 85°
2026-05-08 17:33 43.43642 -5.83123 524 ft 0 kts 90°
2026-05-08 17:33 43.43630 -5.83147 525 ft 3 kts 221°
2026-05-08 17:33 43.43581 -5.83169 526 ft 10 kts 212°
2026-05-08 17:34 43.43520 -5.83183 526 ft 8 kts 180°
2026-05-08 17:34 43.43449 -5.83194 525 ft 6 kts 181°
2026-05-08 17:34 43.43413 -5.83197 524 ft 11 kts 177°
2026-05-08 17:34 43.43317 -5.83211 523 ft 15 kts 189°
2026-05-08 17:35 43.43238 -5.83221 523 ft 11 kts 187°
2026-05-08 17:35 43.43153 -5.83231 522 ft 7 kts 182°
2026-05-08 17:35 43.43086 -5.83244 521 ft 8 kts 178°
2026-05-08 17:35 43.43067 -5.83152 521 ft 19 kts 88°
2026-05-08 17:36 43.43055 -5.82718 649 ft 60 kts 88°
2026-05-08 17:36 43.43088 -5.82135 866 ft 65 kts 86°
2026-05-08 17:36 43.43099 -5.81529 1109 ft 61 kts 85°
2026-05-08 17:36 43.43158 -5.80921 1256 ft 70 kts 58°
2026-05-08 17:37 43.43572 -5.80646 1478 ft 70 kts
2026-05-08 17:37 43.44026 -5.80871 1546 ft 72 kts 321°
2026-05-08 17:37 43.44237 -5.81501 1566 ft 74 kts 272°
2026-05-08 17:37 43.44150 -5.82172 1645 ft 67 kts 257°
2026-05-08 17:38 43.44088 -5.82854 1637 ft 74 kts 265°
2026-05-08 17:38 43.44081 -5.83547 1701 ft 70 kts 271°
2026-05-08 17:38 43.44009 -5.84214 1730 ft 70 kts 255°
2026-05-08 17:38 43.43978 -5.84879 1751 ft 73 kts 282°
2026-05-08 17:39 43.44190 -5.85444 1819 ft 67 kts 321°
2026-05-08 17:39 43.44590 -5.85756 1904 ft 58 kts 334°
2026-05-08 17:39 43.44891 -5.86179 1926 ft 65 kts 282°
2026-05-08 17:39 43.44725 -5.86752 1995 ft 59 kts 243°
2026-05-08 17:40 43.44571 -5.87283 2038 ft 61 kts 244°
2026-05-08 17:40 43.44457 -5.87857 2075 ft 62 kts 259°
2026-05-08 17:40 43.44319 -5.88385 2087 ft 61 kts 199°
2026-05-08 17:40 43.43942 -5.88595 2143 ft 60 kts 211°
2026-05-08 17:41 43.43550 -5.88815 2147 ft 59 kts 181°
2026-05-08 17:41 43.43158 -5.88865 2199 ft 56 kts 183°
2026-05-08 17:41 43.42783 -5.89039 2220 ft 59 kts 207°
2026-05-08 17:41 43.42516 -5.89483 2229 ft 63 kts 232°
2026-05-08 17:42 43.42264 -5.89963 2255 ft 63 kts 233°
2026-05-08 17:42 43.42034 -5.90510 2300 ft 69 kts 240°
2026-05-08 17:42 43.41850 -5.91107 2397 ft 64 kts 235°
2026-05-08 17:42 43.41555 -5.91547 2470 ft 64 kts 214°
2026-05-08 17:43 43.41194 -5.91924 2527 ft 66 kts 211°
2026-05-08 17:43 43.40850 -5.92346 2591 ft 65 kts 215°
2026-05-08 17:43 43.40475 -5.92678 2638 ft 66 kts 210°
2026-05-08 17:43 43.40111 -5.93093 2623 ft 72 kts 207°
2026-05-08 17:44 43.39661 -5.93328 2654 ft 69 kts 201°
2026-05-08 17:44 43.39253 -5.93755 2610 ft 75 kts 220°
2026-05-08 17:44 43.38832 -5.94161 2577 ft 76 kts 207°
2026-05-08 17:44 43.38375 -5.94581 2531 ft 77 kts 213°
2026-05-08 17:45 43.37947 -5.95028 2485 ft 75 kts 216°
2026-05-08 17:45 43.37604 -5.95535 2427 ft 74 kts 228°
2026-05-08 17:45 43.37338 -5.96134 2380 ft 72 kts 252°
2026-05-08 17:45 43.37341 -5.96821 2318 ft 75 kts 277°
2026-05-08 17:46 43.37459 -5.97534 2217 ft 79 kts 287°
2026-05-08 17:46 43.37657 -5.98240 2144 ft 78 kts 294°
2026-05-08 17:46 43.37964 -5.98879 2035 ft 79 kts 305°
2026-05-08 17:46 43.38295 -5.99493 1918 ft 80 kts 309°
2026-05-08 17:47 43.38590 -6.00077 1886 ft 74 kts 294°
2026-05-08 17:47 43.38747 -6.00737 1864 ft 68 kts 286°
2026-05-08 17:47 43.38908 -6.01332 1810 ft 69 kts 300°
2026-05-08 17:47 43.39114 -6.01881 1831 ft 62 kts 300°
2026-05-08 17:48 43.39314 -6.02409 1845 ft 62 kts 289°
2026-05-08 17:48 43.39519 -6.02982 1820 ft 71 kts 295°
2026-05-08 17:48 43.39547 -6.03632 1882 ft 64 kts 252°
2026-05-08 17:48 43.39454 -6.04241 1878 ft 66 kts 260°
2026-05-08 17:49 43.39279 -6.04823 1836 ft 68 kts 233°
2026-05-08 17:49 43.39062 -6.05353 1842 ft 65 kts 241°
2026-05-08 17:49 43.38864 -6.05901 1829 ft 65 kts 240°
2026-05-08 17:49 43.38850 -6.06487 1839 ft 63 kts 306°
2026-05-08 17:50 43.39244 -6.06701 1805 ft 65 kts 353°
2026-05-08 17:50 43.39680 -6.06727 1811 ft 62 kts
2026-05-08 17:50 43.40113 -6.06824 1808 ft 62 kts 341°
2026-05-08 17:50 43.40516 -6.07036 1827 ft 62 kts 347°
2026-05-08 17:51 43.40937 -6.07049 1832 ft 62 kts
2026-05-08 17:51 43.41359 -6.07073 1853 ft 61 kts 354°
2026-05-08 17:51 43.41788 -6.07257 1843 ft 63 kts 340°
2026-05-08 17:51 43.42199 -6.07453 1852 ft 63 kts 343°
2026-05-08 17:52 43.42614 -6.07610 1822 ft 61 kts 343°
2026-05-08 17:52 43.43006 -6.07819 1851 ft 57 kts 342°
2026-05-08 17:52 43.43768 -6.08293 1850 ft 64 kts 342°
2026-05-08 17:53 43.44170 -6.08489 1867 ft 59 kts 349°
2026-05-08 17:53 43.44562 -6.08632 1884 ft 58 kts 346°
2026-05-08 17:53 43.44957 -6.08804 1884 ft 59 kts 347°
2026-05-08 17:53 43.45349 -6.09018 1849 ft 66 kts 317°
2026-05-08 17:54 43.45651 -6.09437 1863 ft 62 kts 320°
2026-05-08 17:54 43.45990 -6.09855 1822 ft 64 kts 322°
2026-05-08 17:54 43.46348 -6.10220 1792 ft 65 kts 334°
2026-05-08 17:54 43.46771 -6.10305 1777 ft 63 kts
2026-05-08 17:55 43.47202 -6.10265 1767 ft 62 kts 356°
2026-05-08 17:55 43.47613 -6.10369 1770 ft 59 kts 356°
2026-05-08 17:55 43.48041 -6.10467 1738 ft 62 kts 341°
2026-05-08 17:55 43.48457 -6.10662 1733 ft 61 kts 355°
2026-05-08 17:56 43.48883 -6.10572 1704 ft 61 kts 14°
2026-05-08 17:56 43.49254 -6.10340 1676 ft 60 kts 46°
2026-05-08 17:56 43.49620 -6.10048 1611 ft 66 kts
2026-05-08 17:56 43.49988 -6.09811 1600 ft 58 kts 51°
2026-05-08 17:57 43.50352 -6.09525 1517 ft 62 kts 28°
2026-05-08 17:57 43.50751 -6.09327 1433 ft 64 kts 27°
2026-05-08 17:57 43.51171 -6.09205 1424 ft 59 kts 10°
2026-05-08 17:57 43.51566 -6.09089 1416 ft 56 kts 20°
2026-05-08 17:58 43.51935 -6.08858 1378 ft 59 kts 24°
2026-05-08 17:58 43.52332 -6.08660 1351 ft 61 kts 24°
2026-05-08 17:58 43.52733 -6.08487 1348 ft 58 kts 20°
2026-05-08 17:58 43.53119 -6.08326 1332 ft 57 kts 22°
2026-05-08 17:59 43.53482 -6.08118 1332 ft 55 kts 16°
2026-05-08 17:59 43.53933 -6.08039 1310 ft 56 kts 18°
2026-05-08 17:59 43.54264 -6.07702 1203 ft 68 kts 17°
2026-05-08 17:59 43.54744 -6.07709 1131 ft 70 kts 342°
2026-05-08 18:00 43.55163 -6.07955 1139 ft 61 kts 343°
2026-05-08 18:00 43.55949 -6.07952 1073 ft 58 kts 38°
2026-05-08 18:00 43.56243 -6.07585 1042 ft 60 kts 40°
2026-05-08 18:01 43.56603 -6.07332 1015 ft 53 kts 33°
2026-05-08 18:01 43.56914 -6.07025 902 ft 55 kts 54°
2026-05-08 18:01 43.57011 -6.06542 833 ft 45 kts 92°
2026-05-08 18:01 43.56989 -6.06088 667 ft 52 kts 97°
2026-05-08 18:02 43.56869 -6.05658 605 ft 48 kts 107°
2026-05-08 18:02 43.56810 -6.05364 556 ft 48 kts 108°
2026-05-08 18:02 43.56675 -6.04819 410 ft 44 kts 105°
2026-05-08 18:02 43.56585 -6.04433 389 ft 35 kts 101°
2026-05-08 18:03 43.56549 -6.04265 395 ft 7 kts 103°
2026-05-08 18:03 43.56538 -6.04198 396 ft 17 kts 116°
2026-05-08 18:03 43.56500 -6.04086 398 ft 9 kts 227°
2026-05-08 18:03 43.56516 -6.04118 397 ft 10 kts 97°
2026-05-08 18:04 43.56490 -6.04024 400 ft 10 kts 107°
2026-05-08 18:04 43.56464 -6.03913 403 ft 20 kts 103°
2026-05-08 18:04 43.56421 -6.03703 409 ft 14 kts 111°
2026-05-08 18:04 43.56390 -6.03621 411 ft 7 kts 118°
2026-05-08 18:05 43.56372 -6.03552 411 ft 10 kts 107°
2026-05-08 18:05 43.56338 -6.03439 413 ft 13 kts 97°
2026-05-08 18:05 43.56313 -6.03302 413 ft 15 kts 107°
2026-05-08 18:05 43.56263 -6.03177 413 ft 10 kts 143°
2026-05-08 18:06 43.56223 -6.03170 414 ft 6 kts 192°
2026-05-08 18:06 43.56123 -6.03169 417 ft 15 kts 116°
2026-05-08 18:06 43.56097 -6.03062 415 ft 8 kts 104°
2026-05-08 18:06 43.56064 -6.02931 414 ft 11 kts 122°
2026-05-08 18:07 43.55991 -6.02901 415 ft 10 kts 145°
2026-05-08 18:07 43.55960 -6.02817 414 ft 10 kts 106°
2026-05-08 18:07 43.55938 -6.02733 412 ft 5 kts 125°
2026-05-08 18:07 43.55895 -6.02727 413 ft 9 kts 196°
2026-05-08 18:08 43.55866 -6.02739 414 ft 0 kts 191°
2026-05-08 18:08 43.55865 -6.02739 414 ft 0 kts 191°
2026-05-08 18:08 43.55866 -6.02754 415 ft 0 kts 294°
2026-05-08 18:09 43.55867 -6.02757 415 ft 0 kts 278°
2026-05-08 18:10 43.55867 -6.02760 415 ft 0 kts 278°
2026-05-08 18:10 43.55868 -6.02773 416 ft 0 kts 277°